Regional Weather Roundup
Issued by NWS

Home | Current Version | Previous Version | Text Only | Print | Product List | Glossary On
Versions: 1 2 3 4 5 6 7 8 9 10 11 12 13 14 15 16 17 18 19 20 21 22 23 24 25 26 27 28 29 30 31 32 33 34 35 36 37 38 39 40 41 42 43 44 45 46 47 48 49 50
228
ASUS44 KLIX 240511
RWRLA
LOUISIANA WEATHER ROUNDUP
NATIONAL WEATHER SERVICE NEW ORLEANS LA
1200 AM CDT WED AUG 24 2016

NOTE: "FAIR" INDICATES FEW OR NO CLOUDS BELOW 12,000 FEET WITH NO
      SIGNIFICANT WEATHER AND/OR OBSTRUCTIONS TO VISIBILITY.
      SKY/WX - SKY CONDITION AND SIGNIFICANT WEATHER.
      TMP - AIR TEMPERATURE.    DP   - DEWPOINT TEMPERATURE.
      RH  - RELATIVE HUMIDITY.  PRES - PRESSURE.
      HX  - HEAT INDEX.         WCI  - WIND CHILL INDEX.

*  THESE STATIONS ARE NOT NWS OR FAA STATIONS AND ARE NOT UNDER
   NWS QUALITY CONTROL.

LAZ040-048-061>063-065-066-069-240600-
SOUTHEAST LOUISIANA

CITY           SKY/WX    TMP DP  RH WIND       PRES   REMARKS
N.O. AUDUBON     N/A     81  77  89 MISG        N/A
N.O. INTL ARPT PTCLDY    83  76  79 W5        30.15F
N.O. LAKEFRONT CLEAR     85  75  72 W5        30.16S
N.O. DOWNTOWN* FAIR      83  76  79 CALM      30.16S
RESERVE*       FAIR      81  78  89 CALM      30.16S
SLIDELL        NOT AVBL
BATON ROUGE    MOCLDY    81  78  91 CALM      30.16S
BOOTHVILLE     CLEAR     84  77  79 SE3       30.16S
BELLE CHASSE   CLEAR     79  77  94 CALM      30.15S
BOGALUSA*      FAIR      80  75  84 CALM      30.18R
GALLIANO*      CLEAR    N/A N/A N/A CALM      30.15F
NEW ROADS*     MOCLDY    81  75  84 E3        30.16F
GONZALES*      FAIR      78  77  96 CALM      30.15S
HAMMOND*       PTCLDY    79  73  83 CALM      30.16S
HOUMA*         CLEAR     76  76 100 CALM      30.15F
PORT FOURCHON* CLEAR     86  75  70 CALM      30.15F HX  95

$$

LAZ041-044-053-054-240600-
SOUTHWEST LOUISIANA

CITY           SKY/WX    TMP DP  RH WIND       PRES   REMARKS
LAKE CHARLES   CLEAR     78  77  96 CALM      30.15S
LAFAYETTE      CLEAR     82  76  81 CALM      30.15F
PATTERSON      PTCLDY    79  78  97 CALM      30.16F
SALT POINT       N/A     83  79  88 CALM      30.14S
NEW IBERIA     CLOUDY    79  77  94 CALM      30.16S
CHENAULT AIRPK CLEAR     78  76  94 CALM      30.15S

$$

LAZ027-028-240600-
CENTRAL LOUISIANA

CITY           SKY/WX    TMP DP  RH WIND       PRES   REMARKS
FORT POLK      CLEAR     79  77  93 S7        30.15F
ALEXANDRIA INT PTCLDY    78  76  93 SE6       30.14R
ALEXANDRIA     MOCLDY    77  77 100 CALM      30.16R FOG

$$

LAZ001-002-240600-
NORTHWEST LOUISIANA

CITY           SKY/WX    TMP DP  RH WIND       PRES   REMARKS
SHREVEPORT     PTCLDY    80  77  90 S5        30.13S
BARKSDALE AFB  CLEAR     78  78 100 SE3       30.14R
DTN SHREVEPORT CLEAR     82  76  81 S5        30.14R

$$

LAZ014-016-240600-
NORTHEAST LOUISIANA

CITY           SKY/WX    TMP DP  RH WIND       PRES   REMARKS
MONROE         CLEAR     80  77  90 S5        30.15S
TALLULAH       PTCLDY    78  75  90 CALM      30.16S

$$





USA.gov is the U.S. government's official web portal to all federal, state and local government web resources and services.